INTELSAT 33E DEB

Satellite information

Favourite Embed

Satellite Type and Status

DEBRISIN ORBIT

Key statistics

Satellite INTELSAT 33E DEB at a glance.

Uptime

3294

Days in orbit

Revolutions

≈ 1.0

Per day

Orbit

GEO

Geostationary Orbit

Inclination

0.7

Latest

Satellite identification and parameters

Extended collection of information and parameters for INTELSAT 33E DEB.

Object identification

Identified? True

Debris? True

Object name: INTELSAT 33E DEB

International designator: 2016-053AQ

Object number (NORAD): 64410

Object ID (CCSDS): 64410

Country: INTERNATIONAL TELECOMMUNICATIONS SATELLITE ORGANIZATION (INTELSAT) (ITSO)

Current information (Y/N): Y

Orbital parameters

Period: 1440.084 minutes

Inclination: 0.7298 deg

SMA: 42242.734 km

Apoapsis: 36133.648 km

Periapsis: 35595.55 km

RAAN: 61.4421 deg

Eccentricy: 0.00636912

Argument of periapsis: 24.4545 deg

Mean anomaly: 274.8242 deg

Mean motion: 0.99994182 rev/day

Mean motion (dot): -0.00000342 rev/day2

B* drag term: 0.0 1/REarth

Two-line elements (TLE)

Creation date: Aug. 27, 2025, 2:14 a.m.

Reference frame: TEME

Reference center: EARTH

Epoch: Aug. 26, 2025, 6:04 p.m. UTC

TLE line 0: 0 INTELSAT 33E DEB

TLE line 1: 1 64410U 16053AQ 25238.75310056 -.00000342 00000-0 00000-0 0 9997

TLE line 2: 2 64410 0.7298 61.4421 0063691 24.4545 274.8242 0.99994182 2934

Live tracking on map

Real-time ground track for satellite INTELSAT 33E DEB.

In-orbit conjunctions

A list of the most updated potential collisions computed for object INTELSAT 33E DEB.

Target Orbit TCA Probability of collision Miss distance Type
HIMAWARI 1 (GMS 1) OTHER 2025-08-27 13:25:20 TBA 3958.0 (m) PAYLOAD

Associated space launch

Intelsat 33e and Intelsat 36 are communication satellites. Intelsat 33e will cover Europe, Africa, Asia and the Middle East. Intelsat 36 will cover Africa and South Asia. Both contain C-band transponders, Ku-band transponders and have an expected life span or about 15 years.

INTELSAT 33E DEB was lifted into orbit during the mission ‘Ariane 5 ECA | Intelsat 33e & Intelsat 36’, on board a Ariane 5 ECA space rocket.

The launch took place on Aug. 24, 2016, 10:16 p.m. from Ariane Launch Area 3.

For more information about the launch, click the button.

Launch to space Ariane 5 ECA | Intelsat 33e & Intelsat 36
Ariane 5 ECA | Intelsat 33e & Intelsat 36

Agency: N/A

Status: Launch Successful

Launch date: Aug. 24, 2016, 10:16 p.m. UTC

Rocket: Ariane 5 ECA

Launch pad: Ariane Launch Area 3

Location: Guiana Space Centre, French Guiana

...

Latest news about this satellite

News about space launch
Intelsat 33e demise exposes vulnerabilities in the space domain

Intelsat 33e’s break-up in geostationary orbit highlights an emerging threat for the contested space domain, an executive at U.S.-based space-tracking company ExoAnalytic Solutions said Dec. 10 during the Spacepower Conference here. The post Intelsat 33e...

News about space launch
Intelsat 33e Breakup Sends Shockwaves

Space-tracking company ExoAnalytic Solutions has identified about 500 pieces of debris from Intelsat 33e’s recent breakup in geostationary orbit (GEO).

News about space launch
ExoAnalytic observes 500 pieces of debris from Intelsat 33e breakup

U.S.-based space-tracking company ExoAnalytic Solutions has identified about 500 pieces of debris from Intelsat 33e’s recent breakup in geostationary orbit.


Newsletter sign-up

Weekly statistics, charts and insights to help you stay on top of the space industry.